Location: Washington
(38.8950°N, 77.0367°W)
Time: 01:45:26
(UTC-04:00)

N. Korean satellite - Visible Passes

Search period start: 27 May 2015 00:00
Search period end: 06 June 2015 00:00
Orbit: 475 x 537 km, 97.3° (Epoch: 25 May)

Date Brightness Start Highest point End Pass type
(mag) Time Alt. Az. Time Alt. Az. Time Alt. Az.
28 May 9.8 21:35:02 10° WSW 21:36:04 11° W 21:36:53 10° WNW visible
29 May 9.4 21:15:20 10° SW 21:17:58 18° W 21:20:34 10° NW visible
30 May 8.7 20:56:39 10° SSW 20:59:57 30° W 21:03:17 10° NW visible
03 Jun 9.5 21:19:55 10° SW 21:22:23 16° W 21:24:44 10° NW visible
04 Jun 8.9 21:01:05 10° SSW 21:04:18 26° W 21:07:33 10° NW visible
